User: anonymous   Login
Location: Bakov nad Jizerou
(50.4784°N, 14.9394°E)
Time: 19:50:27
(UTC+00:00)
Language:

Cosmos 1802 Rocket - Orbit

View from above orbital plane
View from above orbital plane
View from above satellite
View from above satellite

Ground track
Ground track

The orbit data is extracted from the following two-line orbital elements,

1 17160U 86093B   21268.50889648  .00000042  00000-0  27408-4 0  9999
2 17160  82.9314 346.0120 0040154 116.7988 256.3930 13.74652805747371
Epoch (UTC): 25 September 2021 12:12:48
Eccentricity: 0.0040154
inclination: 82.9314°
perigee height: 953 km
apogee height: 1012 km
right ascension of ascending node: 346.0120°
argument of perigee: 116.7988°
revolutions per day: 13.74652805
mean anomaly at epoch: 256.3930°
orbit number at epoch: 74737

The dashed part of the orbit path shows where the satellite is in the earth's shadow,  

DLR